DELTA 1 DEB, 42589

Orbit data source: Space-Track

DELTA 1 DEB, 42589 is space debris in SSO originally from a launch on Tue, 06 Nov 1973 UTC launched from the Air Force Western Test Range (AFWTR). Debris objects in space refer to the collection of defunct objects orbiting the Earth. Examples of debris include non-operational satellites, rocket bodies, and fragments generated from explosions, collisions, or faulty payload assembly.

Loading next visibility...
Identifier
42589, 1973-086JD
Orbit
SSO
Country
Flag of USUS
Related business
Manufacturer
Unknown
Mission
Spacecraft
Bus & Motor
Unknown
Mass
Unknown
Launch date (UTC)
1973-11-06 (53 years ago)
Launch vehicle
Unknown
Launch site
Air Force Western Test Range (AFWTR)
Object type
Payload
Rocket body
Debris
Shape & HBR
Unknown shape, 0.1 m
Radar Cross Section
Small (<0.1 m²)

Expand to show TLE details & history
Last TLE update: 2 days ago

TLE from 2 days ago
0 DELTA 1 DEB
1 42589U 73086JD  26262.27279637 -.00000084  00000-0 -65351-4 0  9991
2 42589 102.5827  94.2579 0317045  68.7081 294.7557 13.06660114612164
Epoch: 2026-09-19T06:32Z
TLE epoch observation values (Epoch: 2026-09-19T06:32:49.606Z)
Latitude
-0.00004°
Longitude
-2.13249°
Altitude
1,144.055 km
Speed
7.326 km/s
True Right ascension
06h 17m 01s
True Declination
0° 00' 00"
Sunlit
Object was in daylight at epoch
Visualization orbit readout
Latitude
Unknown
Longitude
Unknown
Altitude
Unknown
Speed
Unknown
Apparent Right ascension
Unknown
Apparent Declination
Unknown
Sunlit
N/A
Visualization observer readout
Local Sidereal Time
05:59:51
Azimuth
Unknown
Elevation
Unknown
Doppler factor
Unknown
Orbital elements
Apogee altitude
1,474.955 km
Perigee altitude
992.3 km
Semi-major axis
7,611.765 km
Eccentricity
0.0317
Inclination
102.5827°
RAAN
94.2579°
Arg. of periapsis
68.7081°
True anomaly
291.40279°
Mean anomaly
294.7557°
Eccentric anomaly
293.08462°
Mean motion
3.26825 °/min
Orbital period
110.15 mins
BSTAR
-0.000065351
Loading maneuver chart data...
Computing Atmospheric mass density...
Loading historical data...
Loading historical data...
Loading historical data...
Loading historical data...
Loading historical data...
Loading historical data...
Loading historical data...

Documentation

Showing up to 5 results
|